Location: Caltech
(34.1382°N, 118.1253°W)
Time: 21:30:58
(UTC-07:00)

Saudisat 1A - Visible Passes

Search period start: 01 August 2014 00:00
Search period end: 11 August 2014 00:00
Orbit: 599 x 608 km, 64.6° (Epoch: 01 August)

Date Brightness Start Highest point End Pass type
(mag) Time Alt. Az. Time Alt. Az. Time Alt. Az.
04 Aug 10.8 04:37:51 10° SE 04:39:42 12° ESE 04:41:32 10° E visible
05 Aug 10.0 04:48:13 10° SSE 04:51:51 26° ESE 04:55:30 10° NE visible
06 Aug 8.7 04:59:49 10° SSW 05:04:06 53° ESE 05:08:25 10° NE visible
07 Aug 8.0 05:12:31 13° SW 05:16:27 74° WNW 05:20:53 10° NNE visible
08 Aug 10.2 03:48:19 16° SE 03:49:38 18° ESE 03:52:39 10° ENE visible
08 Aug 8.8 05:25:10 12° WSW 05:28:55 36° NW 05:33:01 10° NNE visible
09 Aug 9.1 04:00:54 33° SE 04:01:49 37° ESE 04:05:54 10° NE visible
09 Aug 9.7 05:38:16 10° W 05:41:30 20° NW 05:44:45 10° N visible
10 Aug 8.0 04:13:24 61° S 04:14:06 79° ESE 04:18:32 10° NNE visible
